Regional Weather Roundup
Issued by NWS Newport/Morehead, NC

Current Version | Previous Version | Graphics & Text | Print | Product List | Glossary On
Versions: 1 2 3 4 5 6 7 8 9 10 11 12 13 14 15 16 17 18 19 20 21 22 23 24 25 26 27 28 29 30 31 32 33 34 35 36 37 38 39 40 41 42 43 44 45 46 47 48 49 50
000 ASUS42 KMHX 311225 RWRMHX WEATHER ROUNDUP FOR EASTERN NORTH CAROLINA NATIONAL WEATHER SERVICE NEWPORT/MOREHEAD CITY NC 800 AM EDT MON AUG 31 2015 NOTE: "FAIR" INDICATES FEW OR NO CLOUDS BELOW 12,000 FEET WITH NO SIGNIFICANT WEATHER AND/OR OBSTRUCTIONS TO VISIBILITY NCZ015>017-031-032-045>047-102-103-311300- NORTH COAST CITY SKY/WX TMP DP RH WIND PRES REMARKS EDENTON CLOUDY 72 69 92 CALM 30.12S ELIZABETH CITY CLOUDY 72 69 90 W6 30.13S KITTY HAWK CLOUDY 75 71 86 CALM 30.12S MANTEO CLOUDY 76 71 85 CALM 30.14R $$ NCZ045>047-081-094-103-104-311300- CENTRAL COAST CITY SKY/WX TMP DP RH WIND PRES REMARKS FRISCO CLOUDY 78 73 84 CALM 30.12R SWANQUARTER NOT AVBL $$ NCZ095-097-098-100-101-311300- SOUTHERN COAST CITY SKY/WX TMP DP RH WIND PRES REMARKS BEAUFORT CLOUDY 77 73 87 E5 30.10S CEDAR ISLAND NOT AVBL JACKSONVILLE CLOUDY 77 72 84 E6 30.08S PINEY ISLAND CLOUDY N/A N/A N/A E6 30.10F WILMINGTON LGT RAIN 78 74 87 E3 30.07R $$ NCZ011>013-027>030-043-044-078>080-089-090>093-098-311300- COASTAL PLAIN CITY SKY/WX TMP DP RH WIND PRES REMARKS AHOSKIE HVY RAIN 68 67 95 CALM 30.15R VSB 3/4 CLINTON LGT RAIN 72 71 98 CALM 30.08S ELIZABETHTOWN LGT RAIN 73 73 100 SE5 30.09R GOLDSBORO CLOUDY 70 69 94 E5 30.08S GREENVILLE CLOUDY 72 70 94 CALM 30.13S HAVELOCK CLOUDY 75 70 84 E3 30.10F KENANSVILLE N/A 71 69 94 CALM 30.11R FOG KINSTON RAIN 72 70 94 E6 30.11S NEW BERN CLOUDY 76 70 82 E5 30.11S RICHLANDS CLOUDY 73 66 78 NE6 30.09S ROCKY MOUNT CLOUDY 70 68 93 N7 30.12S FOG WASHINGTON LGT RAIN 71 68 89 E3 30.11F WHITEVILLE RAIN 74 72 93 CALM 30.07S $$ AMZ130-135-150-152-154-156-158-170-250-252-270-ANZ085-086-088-633-658-670-311300- MARINE OBSERVATIONS STATION/POSITION TIME TEMP WIND PRES WAVE SWELL AIR SEA DIR/SP/G HT/PER HT/PER (UTC) (F) (DEG/KT/KT) (MB) (FT/S) (FT/S) CHESAPEAKE LIGHT 1200 77 280/ 6/ 7 1020.4 64 E VA BEACH 1150 78 78 270/ 6/ 8 1019.5 3/ 9 3/ 9 DUCK NOT AVBL 2 E DUCK 1111 79 N/A 2/10 2/11 OREGON INLET NOT AVBL 13E OREGON INLT 1200 78 N/A 3/10 2/11 HATTERAS CG NOT AVBL DIAMOND BUOY 1050 81 83 CALM / 2 1020.1 3/ 9 3/ 9 CAPE LOOKOUT 1200 80 120/ 12/ 13 1018.9 BEAUFORT LAB NOT AVBL 30 SE NEW RVR IN 1108 81 81 110/ 10/ 12 1018.9 30 SE NEW RVR IN 1125 81 N/A 3/ 9 2/11 27 SE WRIGHTSVLE 1200 74 81 130/ 10/ 12 N/A 5 SE WRIGHTSVLE 1108 81 82 120/ 10/ 14 1017.9 225 S CAPE HAT 1150 83 84 140/ 12/ 16 1019.6 4/10 3/10 41 SE CHARLESTON 1150 82 84 170/ 19/ 23 1015.9 6/ 9 3/ 9 $$

USA.gov is the U.S. government's official web portal to all federal, state and local government web resources and services.